GW3917 Weather Reports


Display with metric or nautical units.
time (UTC)temp
F
wind
direction
speed
MPH
gust
MPH
rain 1hr
in
rain 24hr
in
rain mn
in
humidity
%
barometer
mb
20260510191554 64 56 3.0 8.0 0.00 0.00 0.00 40 1021.4
20260510190057 63 29 2.0 7.0 0.00 0.00 0.00 41 1021.4
20260510184552 63 0 3.0 8.0 0.00 0.00 0.00 42 1021.4
20260510183055 62 54 2.0 10.0 0.00 0.00 0.00 43 1021.5
20260510181555 62 131 3.0 9.0 0.00 0.00 0.00 43 1021.4
20260510180058 63 333 5.0 11.0 0.00 0.00 0.00 43 1021.0
20260510174555 63 59 7.0 15.0 0.00 0.00 0.00 42 1021.1
20260510173057 64 314 3.0 10.0 0.00 0.00 0.00 43 1021.3
20260510171557 62 57 4.0 9.0 0.00 0.00 0.00 45 1021.3
20260510170100 62 360 5.0 13.0 0.00 0.00 0.00 44 1021.1
20260510164601 62 28 4.0 11.0 0.00 0.00 0.00 44 1021.3
20260510163054 61 319 5.0 10.0 0.00 0.00 0.00 46 1021.0
20260510161554 62 58 6.0 12.0 0.00 0.00 0.00 42 1021.0
20260510160100 62 72 2.0 9.0 0.00 0.00 0.00 49 1021.1
20260510154617 62 354 3.0 10.0 0.00 0.00 0.00 47 1020.9
20260510153056 61 39 4.0 10.0 0.00 0.00 0.00 49 1020.8
20260510151554 60 335 3.0 9.0 0.00 0.00 0.00 50 1020.8
20260510150054 60 33 4.0 9.0 0.00 0.00 0.00 46 1020.8
20260510144554 60 46 4.0 10.0 0.00 0.00 0.00 48 1021.1
20260510143057 60 142 3.0 9.0 0.00 0.00 0.00 49 1020.9
20260510141554 59 48 3.0 8.0 0.00 0.00 0.00 53 1020.6
20260510140056 59 31 2.0 7.0 0.00 0.00 0.00 55 1020.4
20260510134602 59 63 4.0 9.0 0.00 0.00 0.00 54 1020.0
20260510133059 59 327 2.0 10.0 0.00 0.00 0.00 57 1019.8
20260510131603 58 352 2.0 7.0 0.00 0.00 0.00 58 1019.3
20260510130059 58 316 3.0 9.0 0.00 0.00 0.00 60 1019.0
20260510124613 57 319 3.0 8.0 0.00 0.00 0.00 61 1018.9
20260510123059 57 338 1.0 4.0 0.00 0.00 0.00 63 1018.8
20260510121600 56 342 1.0 6.0 0.00 0.00 0.00 65 1018.8
20260510120055 54 309 2.0 4.0 0.00 0.00 0.00 69 1018.8
20260510114602 54 314 1.0 5.0 0.00 0.00 0.00 71 1018.4
20260510113102 54 314 0.0 4.0 0.00 0.00 0.00 69 1018.0
20260510111624 55 330 0.0 3.0 0.00 0.00 0.00 66 1017.7
20260510110056 56 51 1.0 3.0 0.00 0.00 0.00 64 1017.5
20260510104610 57 306 2.0 5.0 0.00 0.00 0.00 66 1017.4
20260510103055 57 309 2.0 6.0 0.00 0.00 0.00 67 1017.2
20260510101554 57 359 2.0 5.0 0.00 0.00 0.00 68 1016.9
20260510100100 58 315 3.0 7.0 0.00 0.00 0.00 72 1017.0
20260510094553 58 41 2.0 8.0 0.00 0.00 0.00 75 1016.5
20260510093053 58 333 2.0 6.0 0.00 0.00 0.00 84 1016.2
20260510091558 58 309 1.0 3.0 0.00 0.00 0.00 84 1015.7
20260510084559 58 0 0.0 2.0 0.00 0.00 0.00 85 1015.2
20260510083059 58 41 0.0 3.0 0.00 0.00 0.00 85 1015.1
20260510081553 58 0 0.0 2.0 0.00 0.00 0.00 85 1015.0
20260510074557 58 0 0.0 1.0 0.00 0.00 0.00 88 1015.0
20260510073057 59 0 0.0 0.0 0.00 0.00 0.00 86 1015.0
20260510071554 59 0 0.0 2.0 0.00 0.00 0.00 85 1014.6
20260510070105 60 327 0.0 2.0 0.00 0.00 0.00 86 1014.5
20260510064609 60 57 0.0 3.0 0.00 0.00 0.00 87 1014.6
20260510063054 60 307 2.0 4.0 0.00 0.00 0.00 87 1015.2
20260510061553 60 297 1.0 2.0 0.00 0.00 0.00 86 1015.1
20260510060055 61 0 0.0 7.0 0.00 0.00 0.00 83 1014.5
20260510054552 61 58 1.0 4.0 0.00 0.00 0.00 84 1014.5
20260510053054 62 307 1.0 3.0 0.00 0.00 0.00 82 1014.3
20260510051601 62 0 0.0 1.0 0.00 0.00 0.00 81 1014.1
20260510050055 62 0 1.0 4.0 0.00 0.00 0.00 81 1013.7
20260510044604 62 311 3.0 4.0 0.00 0.00 0.00 82 1013.6
20260510043053 62 304 2.0 3.0 0.00 0.00 0.00 79 1013.2
20260510041604 63 0 0.0 1.0 0.00 0.00 0.00 77 1012.9
20260510040056 64 0 0.0 0.0 0.00 0.00 0.00 75 1012.4
20260510034559 65 0 0.0 0.0 0.00 0.00 0.00 74 1012.4
20260510033054 66 60 0.0 0.0 0.00 0.00 0.00 69 1012.5
20260510031557 66 98 0.0 1.0 0.00 0.00 0.00 67 1012.3
20260510030057 67 0 0.0 2.0 0.00 0.00 0.00 66 1012.2
20260510024553 68 289 2.0 4.0 0.00 0.01 0.00 64 1012.0
20260510023050 68 323 3.0 6.0 0.00 0.01 0.00 63 1011.6
20260510021552 68 306 3.0 8.0 0.00 0.01 0.00 61 1011.2
20260510020051 70 314 7.0 16.0 0.00 0.01 0.00 60 1010.6
20260510014556 71 326 9.0 15.0 0.00 0.09 0.00 60 1010.4
20260510013103 73 0 1.0 2.0 0.00 0.09 0.00 54 1009.1
20260510011555 73 177 1.0 3.0 0.00 0.09 0.00 52 1008.8
20260510010055 74 184 1.0 4.0 0.00 0.09 0.00 50 1008.9
20260510004553 76 159 3.0 5.0 0.00 0.32 0.00 48 1008.9
20260510003059 78 136 2.0 5.0 0.00 0.32 0.00 46 1008.8
20260510001557 80 170 3.0 7.0 0.00 0.32 0.00 44 1008.8
20260510000114 80 197 3.0 6.0 0.00 0.32 0.00 43 1008.8
20260509234605 80 233 1.0 6.0 0.00 0.37 0.00 43 1008.8
20260509233057 78 244 5.0 10.0 0.00 0.37 0.00 42 1008.8
20260509231610 79 225 5.0 12.0 0.00 0.37 0.00 41 1008.9
20260509230105 80 287 5.0 11.0 0.00 0.37 0.00 40 1008.9
20260509224554 80 242 5.0 10.0 0.00 0.37 0.00 44 1008.7
20260509223051 79 250 6.0 10.0 0.00 0.37 0.00 42 1008.8
20260509221549 81 214 7.0 12.0 0.00 0.37 0.00 39 1008.8
20260509220053 82 206 6.0 9.0 0.00 0.37 0.00 37 1008.6
20260509214552 81 257 6.0 13.0 0.00 0.38 0.00 38 1008.7
20260509213054 81 139 5.0 11.0 0.00 0.38 0.00 43 1008.8
20260509211558 81 234 9.0 13.0 0.00 0.38 0.00 40 1008.8
20260509210105 80 283 5.0 11.0 0.00 0.38 0.00 42 1009.0
20260509204550 80 281 5.0 11.0 0.00 0.38 0.00 49 1009.2
20260509203053 79 275 9.0 16.0 0.00 0.38 0.00 43 1009.2
20260509201559 79 235 6.0 13.0 0.00 0.38 0.00 46 1009.4
20260509200059 79 228 7.0 14.0 0.00 0.38 0.00 43 1009.8
20260509194553 79 227 9.0 13.0 0.00 0.38 0.00 46 1009.8
20260509193055 79 263 6.0 11.0 0.00 0.38 0.00 45 1009.8